Date String (YYYY-MM-DD hh:mm:ss) UTC,Instrument flags,Ambient pressure (hPa),Sample flow (lpm),Bypass flow (lpm),Sample temperature (°C),Ambient temperature (°C),ASC tube jacket temperature (°C),LED temperature (°C),Box temperature (°C),Sample RH (%),Span deviation,Mass concentration (μg/m³),Mass concentration (μg/m³),Mass concentration (μg/m³)
DateTimeUTC,F1_M11,P_M11,Q1_M11,Q2_M11,T1_M11,T2_M11,T3_M11,T4_M11,T5_M11,U1_M11,ZSPAN_M11,X0_M11,X2_M11,X1_M11
2022-12-16 12:00:00,,0822.1,4.99,0.00,22.0,21.9,00.0,30.8,23.9,03.3,0000.0,0002.25,0001.38,0001.19
2022-12-16 12:01:00,,0822.1,4.98,0.00,22.0,21.4,00.0,30.8,23.7,03.3,0000.0,0002.12,0001.38,0001.19
2022-12-16 12:02:00,,0822.2,5.03,0.00,21.9,21.0,00.0,30.8,23.6,03.3,0000.0,0002.12,0001.38,0001.18
2022-12-16 12:03:00,,0822.2,4.99,0.00,21.9,20.7,00.0,30.8,23.5,03.3,0000.0,0002.47,0001.37,0001.18
2022-12-16 12:04:00,,0822.2,4.97,0.00,21.8,20.5,00.0,30.8,23.4,03.4,0000.0,0002.88,0001.34,0001.17
2022-12-16 12:05:00,,0822.3,5.03,0.00,21.8,20.2,00.0,30.8,23.3,03.4,0000.0,0003.99,0001.34,0001.18
2022-12-16 12:06:00,,0822.3,4.97,0.00,21.7,20.2,00.0,30.7,23.4,03.4,0000.0,0003.99,0001.35,0001.18
2022-12-16 12:07:00,,0822.4,5.04,0.00,21.8,21.2,00.0,30.7,23.6,03.4,0000.0,0004.02,0001.36,0001.19
2022-12-16 12:08:00,,0822.4,4.96,0.00,22.0,22.1,00.0,30.7,23.9,03.4,0000.0,0004.05,0001.37,0001.20
2022-12-16 12:09:00,,0822.4,5.03,0.00,22.0,21.9,00.0,30.7,23.9,03.4,0000.0,0004.05,0001.39,0001.21
2022-12-16 12:10:00,,0822.4,4.97,0.00,22.0,21.5,00.0,30.8,23.8,03.5,0000.0,0004.08,0001.41,0001.21
2022-12-16 12:11:00,,0822.4,5.03,0.00,22.0,21.1,00.0,30.8,23.8,03.5,0000.0,0004.18,0001.45,0001.21
2022-12-16 12:12:00,,0822.4,5.00,0.00,22.0,20.8,00.0,30.8,23.6,03.5,0000.0,0004.07,0001.44,0001.22
2022-12-16 12:13:00,,0822.4,4.97,0.00,21.9,20.5,00.0,30.8,23.6,03.5,0000.0,0004.55,0001.43,0001.23
2022-12-16 12:14:00,,0822.4,5.04,0.00,21.9,20.4,00.0,30.8,23.6,03.5,0000.0,0004.49,0001.45,0001.23
2022-12-16 12:15:00,,0822.4,4.97,0.00,21.8,20.3,00.0,30.8,23.5,03.5,0000.0,0004.06,0001.50,0001.25
2022-12-16 12:16:00,,0822.4,5.01,0.00,21.8,20.2,00.0,30.8,23.5,03.5,0000.0,0002.98,0001.50,0001.26
2022-12-16 12:17:00,,0822.4,5.00,0.00,21.8,20.5,00.0,30.7,23.6,03.5,0000.0,0003.16,0001.55,0001.27
2022-12-16 12:18:00,,0822.4,4.99,0.00,21.9,21.5,00.0,30.7,23.8,03.5,0000.0,0003.30,0001.58,0001.27
2022-12-16 12:19:00,,0822.5,5.00,0.00,22.0,22.1,00.0,30.7,24.0,03.5,0000.0,0003.26,0001.57,0001.27
2022-12-16 12:20:00,,0822.4,5.00,0.00,22.0,21.7,00.0,30.8,23.9,03.5,0000.0,0003.28,0001.57,0001.27
2022-12-16 12:21:00,,0822.4,4.98,0.00,22.0,21.3,00.0,30.8,23.9,03.5,0000.0,0003.21,0001.55,0001.28
2022-12-16 12:22:00,,0822.4,5.06,0.00,22.0,21.0,00.0,30.8,23.8,03.5,0000.0,0003.38,0001.56,0001.29
2022-12-16 12:23:00,,0822.4,4.97,0.00,22.0,20.8,00.0,30.8,23.7,03.5,0000.0,0003.64,0001.59,0001.29
2022-12-16 12:24:00,,0822.4,4.98,0.00,21.9,20.6,00.0,30.8,23.7,03.6,0000.0,0003.45,0001.58,0001.29
2022-12-16 12:25:00,,0822.4,5.02,0.00,21.9,20.4,00.0,30.8,23.6,03.4,0000.0,0003.06,0001.55,0001.29
2022-12-16 12:26:00,,0822.4,4.97,0.00,21.9,20.3,00.0,30.8,23.6,03.4,0000.0,0003.34,0001.54,0001.29
2022-12-16 12:27:00,,0822.4,5.04,0.00,21.9,20.5,00.0,30.8,23.6,03.4,0000.0,0003.38,0001.56,0001.29
2022-12-16 12:28:00,,0822.4,4.95,0.00,21.9,21.5,00.0,30.7,23.8,03.4,0000.0,0003.26,0001.53,0001.29
2022-12-16 12:29:00,,0822.4,5.02,0.00,22.0,22.1,00.0,30.7,24.0,03.3,0000.0,0003.05,0001.49,0001.29
2022-12-16 12:30:00,,0822.4,4.97,0.00,22.1,21.8,00.0,30.8,24.0,03.3,0000.0,0003.03,0001.48,0001.28
2022-12-16 12:31:00,,0822.4,5.03,0.00,22.1,21.4,00.0,30.8,23.9,03.2,0000.0,0003.03,0001.47,0001.27
2022-12-16 12:32:00,,0822.4,5.01,0.00,22.0,21.0,00.0,30.8,23.8,03.2,0000.0,0003.02,0001.45,0001.25
2022-12-16 12:33:00,,0822.4,4.97,0.00,22.0,20.7,00.0,30.8,23.7,03.2,0000.0,0002.77,0001.39,0001.24
2022-12-16 12:34:00,,0822.4,5.03,0.00,21.9,20.4,00.0,30.8,23.6,03.4,0000.0,0002.66,0001.36,0001.23
2022-12-16 12:35:00,,0822.4,4.99,0.00,21.9,20.3,00.0,30.8,23.6,03.3,0000.0,0002.20,0001.35,0001.23
2022-12-16 12:36:00,,0822.4,4.97,0.00,21.9,20.1,00.0,30.8,23.5,03.4,0000.0,0002.20,0001.35,0001.23
2022-12-16 12:37:00,,0822.4,5.05,0.00,21.8,20.1,00.0,30.8,23.5,03.4,0000.0,0001.89,0001.36,0001.23
2022-12-16 12:38:00,,0822.4,4.99,0.00,21.9,21.2,00.0,30.7,23.7,03.5,0000.0,0001.80,0001.34,0001.23
2022-12-16 12:39:00,,0822.4,5.00,0.00,22.0,22.0,00.0,30.7,23.9,03.4,0000.0,0001.85,0001.36,0001.23
2022-12-16 12:40:00,,0822.5,4.99,0.00,22.0,21.8,00.0,30.8,23.9,03.4,0000.0,0001.85,0001.36,0001.23
2022-12-16 12:41:00,,0822.5,4.98,0.00,22.0,21.2,00.0,30.8,23.8,03.4,0000.0,0001.92,0001.38,0001.23
2022-12-16 12:42:00,,0822.6,5.05,0.00,22.0,20.7,00.0,30.8,23.6,03.4,0000.0,0002.20,0001.43,0001.24
2022-12-16 12:43:00,,0822.6,4.97,0.00,21.9,20.3,00.0,30.8,23.5,03.5,0000.0,0002.34,0001.46,0001.26
2022-12-16 12:44:00,,0822.6,5.01,0.00,21.8,20.0,00.0,30.8,23.4,03.5,0000.0,0002.44,0001.50,0001.29
2022-12-16 12:45:00,,0822.6,4.98,0.00,21.7,19.6,00.0,30.8,23.2,03.5,0000.0,0002.45,0001.53,0001.29
2022-12-16 12:46:00,,0822.6,5.03,0.00,21.7,19.6,00.0,30.7,23.1,03.5,0000.0,0002.47,0001.55,0001.29
2022-12-16 12:47:00,,0822.6,4.96,0.00,21.7,20.7,00.0,30.6,23.4,03.5,0000.0,0002.48,0001.55,0001.30
2022-12-16 12:48:00,,0822.6,5.00,0.00,21.8,21.8,00.0,30.6,23.7,03.4,0000.0,0002.48,0001.54,0001.29
2022-12-16 12:49:00,,0822.6,5.05,0.00,21.9,21.6,00.0,30.7,23.7,03.3,0000.0,0002.50,0001.55,0001.30
2022-12-16 12:50:00,,0822.6,4.94,0.00,21.9,21.2,00.0,30.7,23.7,03.3,0000.0,0002.50,0001.55,0001.30
2022-12-16 12:51:00,,0822.6,5.04,0.00,21.8,20.9,00.0,30.7,23.6,03.4,0000.0,0002.54,0001.56,0001.30
2022-12-16 12:52:00,,0822.6,4.96,0.00,21.8,20.6,00.0,30.7,23.5,03.3,0000.0,0002.50,0001.54,0001.29
2022-12-16 12:53:00,,0822.7,5.05,0.00,21.8,20.4,00.0,30.7,23.4,03.4,0000.0,0002.37,0001.52,0001.29
2022-12-16 12:54:00,,0822.6,4.97,0.00,21.7,20.2,00.0,30.7,23.4,03.5,0000.0,0002.25,0001.51,0001.27
2022-12-16 12:55:00,,0822.6,5.02,0.00,21.7,20.1,00.0,30.7,23.3,03.5,0000.0,0002.17,0001.48,0001.26
2022-12-16 12:56:00,,0822.7,5.00,0.00,21.7,19.9,00.0,30.7,23.3,03.4,0000.0,0002.06,0001.44,0001.26
2022-12-16 12:57:00,,0822.6,4.98,0.00,21.7,20.3,00.0,30.6,23.3,03.4,0000.0,0002.01,0001.42,0001.25
2022-12-16 12:58:00,,0822.7,5.04,0.00,21.8,21.4,00.0,30.6,23.6,03.4,0000.0,0002.06,0001.43,0001.23
2022-12-16 12:59:00,,0822.6,4.95,0.00,21.9,22.0,00.0,30.6,23.8,03.4,0000.0,0002.16,0001.46,0001.23
